| time (UTC) | temp C | wind direction | speed KPH | gust KPH | rain 1hr cm | rain 24hr cm | rain mn cm | humidity % | barometer mb |
| 20260506233332 | 24 | 213 | 1.6 | 9.7 | 0.00 | 0.00 | 0.00 | 46 | 1016.9 |
| 20260506232829 | 25 | 219 | 4.8 | 9.7 | 0.00 | 0.00 | 0.00 | 44 | 1016.9 |
| 20260506232324 | 25 | 165 | 3.2 | 4.8 | 0.00 | 0.00 | 0.00 | 44 | 1016.7 |
| 20260506231821 | 25 | 241 | 1.6 | 9.7 | 0.00 | 0.00 | 0.00 | 44 | 1016.7 |
| 20260506231319 | 26 | 253 | 3.2 | 9.7 | 0.00 | 0.00 | 0.00 | 43 | 1017.0 |
| 20260506230816 | 25 | 187 | 0.0 | 4.8 | 0.00 | 0.00 | 0.00 | 43 | 1016.9 |
| 20260506230313 | 25 | 199 | 1.6 | 4.8 | 0.00 | 0.00 | 0.00 | 43 | 1017.0 |
| 20260506225809 | 25 | 205 | 4.8 | 8.0 | 0.00 | 0.00 | 0.00 | 44 | 1017.1 |
| 20260506225306 | 25 | 175 | 0.0 | 11.3 | 0.00 | 0.00 | 0.00 | 43 | 1017.1 |
| 20260506224803 | 25 | 286 | 3.2 | 4.8 | 0.00 | 0.00 | 0.00 | 44 | 1017.3 |
| 20260506224300 | 25 | 220 | 3.2 | 9.7 | 0.00 | 0.00 | 0.00 | 43 | 1017.1 |
| 20260506223756 | 25 | 13 | 11.3 | 12.9 | 0.00 | 0.00 | 0.00 | 42 | 1017.0 |
| 20260506223252 | 25 | 293 | 4.8 | 9.7 | 0.00 | 0.00 | 0.00 | 42 | 1017.3 |
| 20260506222749 | 25 | 220 | 4.8 | 8.0 | 0.00 | 0.00 | 0.00 | 43 | 1017.2 |
| 20260506222244 | 26 | 78 | 3.2 | 4.8 | 0.00 | 0.00 | 0.00 | 42 | 1017.4 |
| 20260506221737 | 25 | 241 | 0.0 | 3.2 | 0.00 | 0.00 | 0.00 | 43 | 1017.5 |
| 20260506221234 | 25 | 297 | 8.0 | 9.7 | 0.00 | 0.00 | 0.00 | 43 | 1017.7 |
| 20260506220726 | 25 | 22 | 3.2 | 8.0 | 0.00 | 0.00 | 0.00 | 42 | 1017.6 |
| 20260506220220 | 25 | 300 | 3.2 | 4.8 | 0.00 | 0.00 | 0.00 | 43 | 1017.5 |
| 20260506215717 | 26 | 332 | 1.6 | 11.3 | 0.00 | 0.00 | 0.00 | 43 | 1017.6 |
| 20260506215213 | 25 | 99 | 3.2 | 4.8 | 0.00 | 0.00 | 0.00 | 40 | 1017.6 |
| 20260506214709 | 25 | 186 | 1.6 | 8.0 | 0.00 | 0.00 | 0.00 | 41 | 1018.0 |
| 20260506214207 | 26 | 345 | 1.6 | 14.5 | 0.00 | 0.00 | 0.00 | 41 | 1017.7 |
| 20260506213705 | 24 | 211 | 0.0 | 9.7 | 0.00 | 0.00 | 0.00 | 44 | 1017.9 |
| 20260506213202 | 25 | 274 | 8.0 | 11.3 | 0.00 | 0.00 | 0.00 | 41 | 1018.0 |
| 20260506212659 | 25 | 283 | 6.4 | 8.0 | 0.00 | 0.00 | 0.00 | 42 | 1018.1 |
| 20260506212154 | 24 | 335 | 3.2 | 11.3 | 0.00 | 0.00 | 0.00 | 43 | 1018.1 |
| 20260506211650 | 26 | 278 | 3.2 | 9.7 | 0.00 | 0.00 | 0.00 | 41 | 1018.2 |
| 20260506211147 | 25 | 214 | 0.0 | 3.2 | 0.00 | 0.00 | 0.00 | 40 | 1018.2 |
| 20260506210644 | 26 | 334 | 8.0 | 11.3 | 0.00 | 0.00 | 0.00 | 40 | 1018.2 |
| 20260506210140 | 26 | 209 | 0.0 | 4.8 | 0.00 | 0.00 | 0.00 | 37 | 1018.2 |
| 20260506205638 | 25 | 210 | 1.6 | 3.2 | 0.00 | 0.00 | 0.00 | 39 | 1018.3 |
| 20260506205132 | 25 | 208 | 1.6 | 3.2 | 0.00 | 0.00 | 0.00 | 39 | 1018.3 |
| 20260506204631 | 26 | 293 | 4.8 | 8.0 | 0.00 | 0.00 | 0.00 | 38 | 1018.1 |
| 20260506204127 | 25 | 209 | 1.6 | 1.6 | 0.00 | 0.00 | 0.00 | 39 | 1018.4 |
| 20260506203625 | 25 | 220 | 1.6 | 8.0 | 0.00 | 0.00 | 0.00 | 41 | 1018.4 |
| 20260506203122 | 25 | 262 | 1.6 | 8.0 | 0.00 | 0.00 | 0.00 | 40 | 1018.4 |
| 20260506202620 | 25 | 213 | 4.8 | 8.0 | 0.00 | 0.00 | 0.00 | 39 | 1018.3 |
| 20260506202116 | 25 | 211 | 0.0 | 3.2 | 0.00 | 0.00 | 0.00 | 39 | 1018.7 |
| 20260506201613 | 24 | 214 | 0.0 | 0.0 | 0.00 | 0.00 | 0.00 | 39 | 1018.5 |
| 20260506201109 | 23 | 189 | 3.2 | 4.8 | 0.00 | 0.00 | 0.00 | 42 | 1018.6 |
| 20260506200606 | 25 | 200 | 1.6 | 8.0 | 0.00 | 0.00 | 0.00 | 40 | 1018.8 |
| 20260506195559 | 23 | 220 | 1.6 | 8.0 | 0.00 | 0.00 | 0.00 | 43 | 1018.8 |
| 20260506195056 | 23 | 341 | 1.6 | 8.0 | 0.00 | 0.00 | 0.00 | 43 | 1018.9 |
| 20260506194554 | 22 | 211 | 3.2 | 4.8 | 0.00 | 0.00 | 0.00 | 44 | 1018.9 |
| 20260506194049 | 23 | 226 | 1.6 | 1.6 | 0.00 | 0.00 | 0.00 | 43 | 1018.8 |
| 20260506193547 | 23 | 221 | 3.2 | 9.7 | 0.00 | 0.00 | 0.00 | 42 | 1019.0 |
| 20260506193044 | 22 | 204 | 0.0 | 3.2 | 0.00 | 0.00 | 0.00 | 45 | 1019.0 |
| 20260506192541 | 22 | 248 | 3.2 | 8.0 | 0.00 | 0.00 | 0.00 | 45 | 1019.0 |
| 20260506192037 | 22 | 213 | 0.0 | 3.2 | 0.00 | 0.00 | 0.00 | 44 | 1019.2 |
| 20260506191534 | 22 | 208 | 0.0 | 4.8 | 0.00 | 0.00 | 0.00 | 45 | 1019.1 |
| 20260506191030 | 22 | 285 | 6.4 | 9.7 | 0.00 | 0.00 | 0.00 | 44 | 1019.2 |
| 20260506190527 | 22 | 231 | 4.8 | 4.8 | 0.00 | 0.00 | 0.00 | 46 | 1019.3 |
| 20260506190024 | 21 | 240 | 6.4 | 9.7 | 0.00 | 0.00 | 0.00 | 47 | 1019.5 |
| 20260506185521 | 22 | 218 | 6.4 | 8.0 | 0.00 | 0.00 | 0.00 | 47 | 1019.2 |
| 20260506185018 | 21 | 216 | 4.8 | 9.7 | 0.00 | 0.00 | 0.00 | 49 | 1019.1 |
| 20260506184515 | 22 | 211 | 3.2 | 3.2 | 0.00 | 0.00 | 0.00 | 46 | 1019.5 |
| 20260506184012 | 21 | 214 | 0.0 | 3.2 | 0.00 | 0.00 | 0.00 | 48 | 1019.5 |
| 20260506183508 | 20 | 215 | 1.6 | 8.0 | 0.00 | 0.00 | 0.00 | 50 | 1019.5 |
| 20260506183005 | 21 | 212 | 4.8 | 4.8 | 0.00 | 0.00 | 0.00 | 48 | 1019.6 |
| 20260506182502 | 22 | 272 | 4.8 | 14.5 | 0.00 | 0.00 | 0.00 | 49 | 1019.7 |
| 20260506181959 | 21 | 215 | 0.0 | 4.8 | 0.00 | 0.00 | 0.00 | 48 | 1019.7 |
| 20260506181457 | 21 | 214 | 0.0 | 1.6 | 0.00 | 0.00 | 0.00 | 48 | 1019.5 |
| 20260506180954 | 21 | 220 | 1.6 | 4.8 | 0.00 | 0.00 | 0.00 | 48 | 1019.7 |
| 20260506180450 | 21 | 222 | 4.8 | 8.0 | 0.00 | 0.00 | 0.00 | 49 | 1019.5 |
| 20260506175947 | 21 | 292 | 3.2 | 4.8 | 0.00 | 0.00 | 0.00 | 49 | 1019.6 |
| 20260506175444 | 19 | 242 | 4.8 | 8.0 | 0.00 | 0.00 | 0.00 | 51 | 1019.6 |
| 20260506174940 | 20 | 262 | 3.2 | 4.8 | 0.00 | 0.00 | 0.00 | 51 | 1019.7 |
| 20260506174438 | 20 | 224 | 3.2 | 4.8 | 0.00 | 0.00 | 0.00 | 51 | 1019.8 |
| 20260506173934 | 20 | 174 | 1.6 | 4.8 | 0.00 | 0.00 | 0.00 | 52 | 1019.9 |
| 20260506173432 | 20 | 206 | 1.6 | 3.2 | 0.00 | 0.00 | 0.00 | 51 | 1019.9 |
| 20260506172928 | 20 | 215 | 0.0 | 4.8 | 0.00 | 0.00 | 0.00 | 52 | 1019.8 |
| 20260506172425 | 20 | 215 | 0.0 | 4.8 | 0.00 | 0.00 | 0.00 | 53 | 1019.6 |
| 20260506171917 | 19 | 212 | 1.6 | 1.6 | 0.00 | 0.00 | 0.00 | 53 | 1019.7 |
| 20260506171414 | 20 | 226 | 3.2 | 8.0 | 0.00 | 0.00 | 0.00 | 53 | 1019.7 |
| 20260506170912 | 19 | 211 | 3.2 | 4.8 | 0.00 | 0.00 | 0.00 | 53 | 1019.7 |
| 20260506170407 | 19 | 208 | 0.0 | 0.0 | 0.00 | 0.00 | 0.00 | 52 | 1019.7 |
| 20260506165901 | 18 | 256 | 3.2 | 3.2 | 0.00 | 0.00 | 0.00 | 54 | 1019.8 |
| 20260506165359 | 17 | 197 | 1.6 | 8.0 | 0.00 | 0.00 | 0.00 | 58 | 1019.5 |
| 20260506164855 | 17 | 223 | 0.0 | 3.2 | 0.00 | 0.00 | 0.00 | 57 | 1019.8 |
| 20260506164351 | 17 | 225 | 0.0 | 3.2 | 0.00 | 0.00 | 0.00 | 56 | 1019.6 |
| 20260506163849 | 17 | 227 | 1.6 | 3.2 | 0.00 | 0.00 | 0.00 | 58 | 1019.6 |
| 20260506163344 | 18 | 286 | 4.8 | 4.8 | 0.00 | 0.00 | 0.00 | 55 | 1019.8 |
| 20260506162839 | 17 | 211 | 0.0 | 1.6 | 0.00 | 0.00 | 0.00 | 60 | 1019.7 |
| 20260506162337 | 17 | 218 | 0.0 | 3.2 | 0.00 | 0.00 | 0.00 | 59 | 1019.9 |
| 20260506161829 | 16 | 219 | 3.2 | 3.2 | 0.00 | 0.00 | 0.00 | 60 | 1019.9 |
| 20260506161326 | 16 | 87 | 3.2 | 4.8 | 0.00 | 0.00 | 0.00 | 60 | 1019.7 |
| 20260506160823 | 16 | 214 | 0.0 | 4.8 | 0.00 | 0.00 | 0.00 | 62 | 1019.7 |
| 20260506160320 | 16 | 219 | 0.0 | 4.8 | 0.00 | 0.00 | 0.00 | 62 | 1019.5 |
| 20260506155818 | 16 | 217 | 1.6 | 3.2 | 0.00 | 0.00 | 0.00 | 63 | 1019.6 |
| 20260506155314 | 16 | 239 | 0.0 | 3.2 | 0.00 | 0.00 | 0.00 | 63 | 1019.8 |
| 20260506153427 | 16 | 233 | 1.6 | 4.8 | 0.00 | 0.00 | 0.00 | 62 | 1019.7 |
| 20260506152925 | 16 | 217 | 1.6 | 3.2 | 0.00 | 0.00 | 0.00 | 61 | 1019.8 |
| 20260506152421 | 16 | 214 | 0.0 | 0.0 | 0.00 | 0.00 | 0.00 | 63 | 1019.8 |
| 20260506151920 | 15 | 232 | 1.6 | 1.6 | 0.00 | 0.00 | 0.00 | 65 | 1019.6 |
| 20260506151417 | 15 | 225 | 1.6 | 1.6 | 0.00 | 0.00 | 0.00 | 65 | 1019.8 |
| 20260506150914 | 14 | 198 | 1.6 | 3.2 | 0.00 | 0.00 | 0.00 | 67 | 1019.8 |
| 20260506150410 | 15 | 226 | 1.6 | 1.6 | 0.00 | 0.00 | 0.00 | 65 | 1019.7 |
| 20260506145908 | 14 | 240 | 0.0 | 3.2 | 0.00 | 0.00 | 0.00 | 67 | 1019.8 |
| 20260506145403 | 14 | 213 | 1.6 | 3.2 | 0.00 | 0.00 | 0.00 | 69 | 1019.8 |
| 20260506144901 | 14 | 214 | 0.0 | 1.6 | 0.00 | 0.00 | 0.00 | 68 | 1019.8 |
| 20260506144357 | 14 | 214 | 0.0 | 1.6 | 0.00 | 0.00 | 0.00 | 69 | 1019.8 |
| 20260506143856 | 14 | 225 | 0.0 | 1.6 | 0.00 | 0.00 | 0.00 | 68 | 1019.8 |
| 20260506143352 | 14 | 216 | 0.0 | 0.0 | 0.00 | 0.00 | 0.00 | 68 | 1020.0 |
| 20260506142851 | 14 | 215 | 0.0 | 0.0 | 0.00 | 0.00 | 0.00 | 68 | 1019.8 |
| 20260506142349 | 15 | 214 | 0.0 | 0.0 | 0.00 | 0.00 | 0.00 | 67 | 1019.8 |
| 20260506141847 | 15 | 214 | 0.0 | 0.0 | 0.00 | 0.00 | 0.00 | 67 | 1019.7 |
| 20260506141344 | 13 | 211 | 0.0 | 0.0 | 0.00 | 0.00 | 0.00 | 70 | 1019.6 |
| 20260506140842 | 12 | 210 | 0.0 | 0.0 | 0.00 | 0.00 | 0.00 | 74 | 1019.7 |
| 20260506140339 | 12 | 208 | 0.0 | 0.0 | 0.00 | 0.00 | 0.00 | 74 | 1019.5 |
| 20260506135836 | 12 | 209 | 0.0 | 0.0 | 0.00 | 0.00 | 0.00 | 74 | 1019.3 |
| 20260506135332 | 11 | 210 | 0.0 | 0.0 | 0.00 | 0.00 | 0.00 | 75 | 1019.6 |
| 20260506134829 | 11 | 210 | 0.0 | 0.0 | 0.00 | 0.00 | 0.00 | 80 | 1019.3 |
| 20260506134325 | 10 | 206 | 0.0 | 0.0 | 0.00 | 0.00 | 0.00 | 80 | 1019.2 |
| 20260506133823 | 10 | 198 | 0.0 | 0.0 | 0.00 | 0.00 | 0.00 | 84 | 1019.3 |
| 20260506133319 | 9 | 206 | 0.0 | 0.0 | 0.00 | 0.00 | 0.00 | 86 | 1019.3 |
| 20260506132816 | 8 | 206 | 0.0 | 0.0 | 0.00 | 0.00 | 0.00 | 87 | 1019.0 |
| 20260506132313 | 8 | 206 | 0.0 | 0.0 | 0.00 | 0.00 | 0.00 | 86 | 1019.0 |
| 20260506131811 | 8 | 207 | 0.0 | 0.0 | 0.00 | 0.00 | 0.00 | 86 | 1019.1 |
| 20260506131307 | 8 | 207 | 0.0 | 0.0 | 0.00 | 0.00 | 0.00 | 86 | 1019.5 |
| 20260506130804 | 8 | 205 | 0.0 | 0.0 | 0.00 | 0.00 | 0.00 | 86 | 1019.3 |
| 20260506130300 | 8 | 202 | 0.0 | 0.0 | 0.00 | 0.00 | 0.00 | 85 | 1019.1 |
| 20260506125759 | 8 | 205 | 0.0 | 0.0 | 0.00 | 0.00 | 0.00 | 85 | 1019.0 |
| 20260506125257 | 8 | 205 | 0.0 | 0.0 | 0.00 | 0.00 | 0.00 | 86 | 1018.9 |
| 20260506124755 | 8 | 202 | 0.0 | 0.0 | 0.00 | 0.00 | 0.00 | 87 | 1018.6 |
| 20260506124251 | 8 | 208 | 0.0 | 0.0 | 0.00 | 0.00 | 0.00 | 87 | 1018.7 |
| 20260506123749 | 8 | 210 | 0.0 | 0.0 | 0.00 | 0.00 | 0.00 | 87 | 1018.6 |
| 20260506123248 | 8 | 206 | 0.0 | 0.0 | 0.00 | 0.00 | 0.00 | 86 | 1018.9 |
| 20260506122744 | 8 | 205 | 0.0 | 0.0 | 0.00 | 0.00 | 0.00 | 86 | 1018.9 |
| 20260506122241 | 8 | 195 | 0.0 | 0.0 | 0.00 | 0.00 | 0.00 | 87 | 1018.8 |
| 20260506121739 | 8 | 201 | 0.0 | 0.0 | 0.00 | 0.00 | 0.00 | 87 | 1018.8 |
| 20260506121236 | 8 | 204 | 0.0 | 0.0 | 0.00 | 0.00 | 0.00 | 87 | 1018.7 |
| 20260506120733 | 8 | 205 | 0.0 | 0.0 | 0.00 | 0.00 | 0.00 | 86 | 1018.5 |
| 20260506120231 | 8 | 206 | 0.0 | 0.0 | 0.00 | 0.00 | 0.00 | 86 | 1018.6 |
| 20260506115728 | 8 | 206 | 0.0 | 0.0 | 0.00 | 0.00 | 0.00 | 85 | 1018.7 |
| 20260506115227 | 8 | 205 | 0.0 | 0.0 | 0.00 | 0.00 | 0.00 | 84 | 1018.6 |
| 20260506114724 | 8 | 201 | 0.0 | 0.0 | 0.00 | 0.00 | 0.00 | 85 | 1018.5 |
| 20260506114221 | 8 | 207 | 0.0 | 0.0 | 0.00 | 0.00 | 0.00 | 86 | 1018.8 |
| 20260506113720 | 8 | 187 | 0.0 | 0.0 | 0.00 | 0.00 | 0.00 | 86 | 1018.8 |
| 20260506113217 | 8 | 203 | 0.0 | 0.0 | 0.00 | 0.00 | 0.00 | 87 | 1018.6 |
| 20260506112713 | 8 | 208 | 0.0 | 0.0 | 0.00 | 0.00 | 0.00 | 86 | 1018.6 |
| 20260506112211 | 8 | 208 | 0.0 | 0.0 | 0.00 | 0.00 | 0.00 | 86 | 1018.6 |
| 20260506111708 | 8 | 198 | 0.0 | 0.0 | 0.00 | 0.00 | 0.00 | 86 | 1018.7 |
| 20260506111206 | 8 | 197 | 0.0 | 0.0 | 0.00 | 0.00 | 0.00 | 86 | 1018.5 |
| 20260506110703 | 8 | 204 | 0.0 | 0.0 | 0.00 | 0.00 | 0.00 | 86 | 1018.5 |
| 20260506110201 | 8 | 201 | 0.0 | 0.0 | 0.00 | 0.00 | 0.00 | 86 | 1018.6 |
| 20260506105657 | 8 | 207 | 0.0 | 0.0 | 0.00 | 0.00 | 0.00 | 86 | 1018.3 |
| 20260506105154 | 9 | 204 | 0.0 | 0.0 | 0.00 | 0.00 | 0.00 | 86 | 1018.5 |
| 20260506104652 | 9 | 202 | 0.0 | 0.0 | 0.00 | 0.00 | 0.00 | 85 | 1018.6 |
| 20260506104149 | 9 | 203 | 0.0 | 0.0 | 0.00 | 0.00 | 0.00 | 84 | 1018.7 |
| 20260506103646 | 9 | 205 | 0.0 | 0.0 | 0.00 | 0.00 | 0.00 | 84 | 1018.7 |
| 20260506103143 | 10 | 206 | 0.0 | 0.0 | 0.00 | 0.00 | 0.00 | 83 | 1018.8 |
| 20260506102641 | 10 | 204 | 0.0 | 0.0 | 0.00 | 0.00 | 0.00 | 83 | 1018.6 |
| 20260506102138 | 10 | 208 | 0.0 | 0.0 | 0.00 | 0.00 | 0.00 | 83 | 1018.8 |
| 20260506101635 | 10 | 207 | 0.0 | 0.0 | 0.00 | 0.00 | 0.00 | 82 | 1018.6 |
| 20260506101132 | 10 | 203 | 0.0 | 0.0 | 0.00 | 0.00 | 0.00 | 81 | 1018.7 |
| 20260506100630 | 10 | 198 | 0.0 | 0.0 | 0.00 | 0.00 | 0.00 | 82 | 1018.7 |
| 20260506100128 | 9 | 187 | 0.0 | 0.0 | 0.00 | 0.00 | 0.00 | 84 | 1018.6 |
| 20260506095627 | 10 | 203 | 0.0 | 0.0 | 0.00 | 0.00 | 0.00 | 83 | 1018.6 |
| 20260506095123 | 10 | 205 | 0.0 | 0.0 | 0.00 | 0.00 | 0.00 | 83 | 1018.7 |
| 20260506094620 | 9 | 197 | 0.0 | 0.0 | 0.00 | 0.00 | 0.00 | 83 | 1018.5 |
| 20260506094118 | 9 | 203 | 0.0 | 0.0 | 0.00 | 0.00 | 0.00 | 83 | 1018.7 |
| 20260506093616 | 10 | 203 | 0.0 | 0.0 | 0.00 | 0.00 | 0.00 | 83 | 1018.7 |
| 20260506093113 | 10 | 207 | 0.0 | 0.0 | 0.00 | 0.00 | 0.00 | 83 | 1018.9 |
| 20260506092611 | 10 | 208 | 0.0 | 0.0 | 0.00 | 0.00 | 0.00 | 82 | 1018.9 |
| 20260506092108 | 10 | 208 | 0.0 | 0.0 | 0.00 | 0.00 | 0.00 | 82 | 1018.8 |
| 20260506091606 | 10 | 205 | 0.0 | 0.0 | 0.00 | 0.00 | 0.00 | 82 | 1018.8 |
| 20260506091103 | 10 | 204 | 0.0 | 0.0 | 0.00 | 0.00 | 0.00 | 81 | 1019.0 |
| 20260506090601 | 10 | 206 | 0.0 | 0.0 | 0.00 | 0.00 | 0.00 | 82 | 1018.9 |
| 20260506090057 | 10 | 201 | 0.0 | 0.0 | 0.00 | 0.00 | 0.00 | 82 | 1018.8 |
| 20260506085554 | 10 | 208 | 0.0 | 0.0 | 0.00 | 0.00 | 0.00 | 82 | 1019.0 |
| 20260506085050 | 10 | 209 | 0.0 | 0.0 | 0.00 | 0.00 | 0.00 | 82 | 1019.1 |
| 20260506084547 | 10 | 204 | 0.0 | 1.6 | 0.00 | 0.00 | 0.00 | 82 | 1019.0 |
| 20260506084043 | 10 | 208 | 0.0 | 1.6 | 0.00 | 0.00 | 0.00 | 82 | 1019.0 |
| 20260506083541 | 10 | 206 | 0.0 | 0.0 | 0.00 | 0.00 | 0.00 | 82 | 1019.0 |
| 20260506083038 | 10 | 179 | 0.0 | 1.6 | 0.00 | 0.00 | 0.00 | 81 | 1019.0 |
| 20260506082534 | 10 | 203 | 0.0 | 0.0 | 0.00 | 0.00 | 0.00 | 81 | 1019.2 |
| 20260506082030 | 10 | 206 | 0.0 | 0.0 | 0.00 | 0.00 | 0.00 | 81 | 1019.3 |
| 20260506081529 | 10 | 203 | 0.0 | 0.0 | 0.00 | 0.00 | 0.00 | 81 | 1019.3 |
| 20260506081026 | 10 | 208 | 0.0 | 0.0 | 0.00 | 0.00 | 0.00 | 81 | 1019.0 |
| 20260506080523 | 10 | 214 | 0.0 | 0.0 | 0.00 | 0.00 | 0.00 | 81 | 1019.3 |
| 20260506073507 | 10 | 204 | 0.0 | 0.0 | 0.00 | 0.00 | 0.00 | 82 | 1019.3 |
| 20260506073004 | 10 | 202 | 0.0 | 0.0 | 0.00 | 0.00 | 0.00 | 82 | 1019.3 |
| 20260506072501 | 10 | 206 | 0.0 | 0.0 | 0.00 | 0.00 | 0.00 | 82 | 1019.1 |
| 20260506071959 | 10 | 205 | 0.0 | 0.0 | 0.00 | 0.00 | 0.00 | 81 | 1019.2 |
| 20260506071456 | 10 | 205 | 0.0 | 0.0 | 0.00 | 0.00 | 0.00 | 80 | 1019.2 |
| 20260506070953 | 10 | 205 | 0.0 | 0.0 | 0.00 | 0.00 | 0.00 | 80 | 1019.0 |
| 20260506070450 | 10 | 207 | 0.0 | 0.0 | 0.00 | 0.00 | 0.00 | 79 | 1019.0 |
| 20260506062428 | 11 | 211 | 0.0 | 1.6 | 0.00 | 0.00 | 0.00 | 77 | 1018.6 |
| 20260506061923 | 11 | 204 | 0.0 | 0.0 | 0.00 | 0.00 | 0.00 | 77 | 1018.5 |
| 20260506061420 | 11 | 205 | 0.0 | 0.0 | 0.00 | 0.00 | 0.00 | 78 | 1018.4 |
| 20260506060918 | 11 | 205 | 0.0 | 0.0 | 0.00 | 0.00 | 0.00 | 78 | 1018.5 |
| 20260506060416 | 11 | 205 | 0.0 | 0.0 | 0.00 | 0.00 | 0.00 | 78 | 1018.5 |
| 20260506051348 | 11 | 209 | 0.0 | 0.0 | 0.00 | 0.00 | 0.00 | 75 | 1018.2 |
| 20260506050845 | 12 | 204 | 0.0 | 1.6 | 0.00 | 0.00 | 0.00 | 74 | 1018.1 |
| 20260506050343 | 11 | 209 | 0.0 | 0.0 | 0.00 | 0.00 | 0.00 | 74 | 1018.1 |
| 20260506044833 | 11 | 206 | 0.0 | 0.0 | 0.00 | 0.00 | 0.00 | 75 | 1017.8 |
| 20260506044331 | 12 | 207 | 0.0 | 0.0 | 0.00 | 0.00 | 0.00 | 74 | 1017.7 |
| 20260506043828 | 12 | 203 | 0.0 | 0.0 | 0.00 | 0.00 | 0.00 | 73 | 1017.7 |
| 20260506043325 | 12 | 212 | 0.0 | 1.6 | 0.00 | 0.00 | 0.00 | 73 | 1017.9 |
| 20260506042823 | 12 | 204 | 0.0 | 1.6 | 0.00 | 0.00 | 0.00 | 73 | 1017.5 |
| 20260506042322 | 12 | 215 | 0.0 | 0.0 | 0.00 | 0.00 | 0.00 | 73 | 1017.4 |
| 20260506041821 | 12 | 209 | 0.0 | 1.6 | 0.00 | 0.00 | 0.00 | 72 | 1017.5 |
| 20260506041317 | 12 | 212 | 0.0 | 3.2 | 0.00 | 0.00 | 0.00 | 72 | 1017.2 |
| 20260506040814 | 12 | 210 | 0.0 | 0.0 | 0.00 | 0.00 | 0.00 | 71 | 1017.3 |
| 20260506040312 | 12 | 207 | 0.0 | 1.6 | 0.00 | 0.00 | 0.00 | 72 | 1017.4 |
| 20260506035808 | 12 | 207 | 0.0 | 1.6 | 0.00 | 0.00 | 0.00 | 71 | 1017.2 |
| 20260506035306 | 12 | 211 | 1.6 | 3.2 | 0.00 | 0.00 | 0.00 | 71 | 1017.2 |
| 20260506034803 | 12 | 219 | 1.6 | 3.2 | 0.00 | 0.00 | 0.00 | 70 | 1017.2 |
| 20260506034300 | 13 | 212 | 0.0 | 0.0 | 0.00 | 0.00 | 0.00 | 70 | 1017.2 |
| 20260506033756 | 13 | 205 | 0.0 | 0.0 | 0.00 | 0.00 | 0.00 | 70 | 1017.1 |
| 20260506033253 | 13 | 212 | 0.0 | 0.0 | 0.00 | 0.00 | 0.00 | 69 | 1017.1 |
| 20260506032750 | 13 | 205 | 0.0 | 3.2 | 0.00 | 0.00 | 0.00 | 68 | 1017.1 |
| 20260506032247 | 13 | 212 | 0.0 | 1.6 | 0.00 | 0.00 | 0.00 | 67 | 1017.0 |
| 20260506031744 | 13 | 213 | 0.0 | 0.0 | 0.00 | 0.00 | 0.00 | 67 | 1016.9 |
| 20260506031241 | 13 | 210 | 0.0 | 0.0 | 0.00 | 0.00 | 0.00 | 67 | 1016.7 |
| 20260506030739 | 13 | 213 | 0.0 | 0.0 | 0.00 | 0.00 | 0.00 | 66 | 1016.6 |
| 20260506030237 | 13 | 209 | 0.0 | 1.6 | 0.00 | 0.00 | 0.00 | 66 | 1016.6 |
| 20260506025733 | 14 | 224 | 0.0 | 3.2 | 0.00 | 0.00 | 0.00 | 66 | 1016.4 |
| 20260506025230 | 14 | 214 | 0.0 | 4.8 | 0.00 | 0.00 | 0.00 | 65 | 1016.5 |
| 20260506024727 | 14 | 228 | 1.6 | 4.8 | 0.00 | 0.00 | 0.00 | 64 | 1016.2 |
| 20260506024223 | 14 | 218 | 0.0 | 8.0 | 0.00 | 0.00 | 0.00 | 63 | 1016.2 |
| 20260506023720 | 15 | 209 | 0.0 | 4.8 | 0.00 | 0.00 | 0.00 | 63 | 1016.0 |
| 20260506023217 | 15 | 284 | 3.2 | 4.8 | 0.00 | 0.00 | 0.00 | 62 | 1016.0 |
| 20260506022713 | 15 | 212 | 0.0 | 1.6 | 0.00 | 0.00 | 0.00 | 62 | 1016.0 |
| 20260506022211 | 15 | 222 | 0.0 | 4.8 | 0.00 | 0.00 | 0.00 | 62 | 1016.1 |
| 20260506021709 | 15 | 208 | 3.2 | 8.0 | 0.00 | 0.00 | 0.00 | 61 | 1016.0 |
| 20260506021206 | 15 | 222 | 1.6 | 3.2 | 0.00 | 0.00 | 0.00 | 60 | 1015.7 |
| 20260506020703 | 15 | 242 | 1.6 | 4.8 | 0.00 | 0.00 | 0.00 | 60 | 1015.8 |
| 20260506020201 | 15 | 232 | 6.4 | 9.7 | 0.00 | 0.00 | 0.00 | 59 | 1015.9 |
| 20260506015658 | 15 | 209 | 3.2 | 4.8 | 0.00 | 0.00 | 0.00 | 60 | 1015.8 |
| 20260506015155 | 15 | 209 | 4.8 | 9.7 | 0.00 | 0.00 | 0.00 | 59 | 1015.7 |
| 20260506014652 | 15 | 222 | 8.0 | 11.3 | 0.00 | 0.00 | 0.00 | 60 | 1015.7 |
| 20260506014148 | 15 | 222 | 4.8 | 11.3 | 0.00 | 0.00 | 0.00 | 58 | 1015.8 |
| 20260506013646 | 16 | 210 | 1.6 | 9.7 | 0.00 | 0.00 | 0.00 | 57 | 1015.7 |
| 20260506013143 | 15 | 259 | 4.8 | 4.8 | 0.00 | 0.00 | 0.00 | 57 | 1015.6 |
| 20260506012639 | 16 | 270 | 8.0 | 12.9 | 0.00 | 0.00 | 0.00 | 56 | 1015.5 |
| 20260506012136 | 16 | 217 | 3.2 | 9.7 | 0.00 | 0.00 | 0.00 | 55 | 1015.4 |
| 20260506011633 | 16 | 228 | 0.0 | 8.0 | 0.00 | 0.00 | 0.00 | 55 | 1015.4 |
| 20260506011129 | 16 | 270 | 1.6 | 4.8 | 0.00 | 0.00 | 0.00 | 55 | 1015.7 |
| 20260506010628 | 16 | 255 | 6.4 | 8.0 | 0.00 | 0.00 | 0.00 | 53 | 1015.6 |
| 20260506010125 | 16 | 207 | 1.6 | 9.7 | 0.00 | 0.00 | 0.00 | 56 | 1015.5 |
| 20260506005622 | 16 | 234 | 8.0 | 14.5 | 0.00 | 0.00 | 0.00 | 54 | 1015.6 |
| 20260506005118 | 16 | 208 | 1.6 | 8.0 | 0.00 | 0.00 | 0.00 | 53 | 1015.6 |
| 20260506004615 | 17 | 267 | 1.6 | 8.0 | 0.00 | 0.00 | 0.00 | 50 | 1015.6 |
| 20260506004112 | 17 | 265 | 1.6 | 8.0 | 0.00 | 0.00 | 0.00 | 52 | 1015.4 |
| 20260506003609 | 17 | 207 | 1.6 | 3.2 | 0.00 | 0.00 | 0.00 | 52 | 1015.4 |
| 20260506003105 | 16 | 199 | 1.6 | 4.8 | 0.00 | 0.00 | 0.00 | 53 | 1015.4 |
| 20260506002601 | 16 | 290 | 11.3 | 14.5 | 0.00 | 0.00 | 0.00 | 52 | 1015.3 |
| 20260506002057 | 16 | 291 | 8.0 | 11.3 | 0.00 | 0.00 | 0.00 | 54 | 1015.4 |
| 20260506001553 | 17 | 206 | 3.2 | 11.3 | 0.00 | 0.00 | 0.00 | 53 | 1015.3 |
| 20260506001050 | 17 | 358 | 1.6 | 8.0 | 0.00 | 0.00 | 0.00 | 52 | 1015.2 |
| 20260506000548 | 16 | 257 | 3.2 | 4.8 | 0.00 | 0.00 | 0.00 | 53 | 1015.3 |
| 20260506000045 | 16 | 208 | 4.8 | 8.0 | 0.00 | 0.00 | 0.00 | 54 | 1015.3 |
| 20260505235543 | 16 | 280 | 1.6 | 4.8 | 0.00 | 0.00 | 0.00 | 54 | 1015.1 |
| 20260505235040 | 16 | 215 | 4.8 | 4.8 | 0.00 | 0.00 | 0.00 | 54 | 1015.3 |
| 20260505234537 | 15 | 223 | 1.6 | 3.2 | 0.00 | 0.00 | 0.00 | 56 | 1015.3 |
| 20260505234033 | 15 | 229 | 1.6 | 4.8 | 0.00 | 0.00 | 0.00 | 58 | 1015.1 |